• In Moldova, Republic
  • List of Countries
  • For 7 days
  • Water Temperature
  • Satellite Maps
  • Weather Map
  • Weather Widgets
  • user-avatar
    Login

    Hourly Weather Barinas

    Today, 18 March, Monday

    Time Temperature Precipitation Wind Pressure Humidity
    00:00 +30°C° 0 mm 3 mps 742 mmHg 50%
    01:00 +30°C° 0 mm 3 mps 742 mmHg 50%
    02:00 +30°C° 0.1 mm 3 mps 742 mmHg 52%
    03:00 +29°C° 0.1 mm 2 mps 742 mmHg 54%
    04:00 +29°C° 0.1 mm 2 mps 742 mmHg 56%
    05:00 +29°C° 0 mm 2 mps 742 mmHg 58%
    06:00 +28°C° 0 mm 2 mps 743 mmHg 59%
    07:00 +28°C° 0 mm 2 mps 743 mmHg 61%
    08:00 +29°C° 0 mm 2 mps 744 mmHg 58%
    09:00 +30°C° 0 mm 3 mps 744 mmHg 55%
    10:00 +31°C° 0 mm 3 mps 744 mmHg 52%
    11:00 +34°C° 0 mm 3 mps 743 mmHg 47%
    12:00 +35°C° 0 mm 3 mps 743 mmHg 43%
    13:00 +37°C° 0 mm 3 mps 742 mmHg 38%
    14:00 +37°C° 0 mm 3 mps 741 mmHg 37%
    15:00 +37°C° 0 mm 2 mps 741 mmHg 36%
    16:00 +38°C° 0 mm 2 mps 740 mmHg 35%
    17:00 +36°C° 0 mm 3 mps 740 mmHg 38%
    18:00 +34°C° 0 mm 3 mps 740 mmHg 40%
    19:00 +33°C° 0 mm 3 mps 741 mmHg 42%
    20:00 +31°C° 0.1 mm 3 mps 741 mmHg 43%
    21:00 +31°C° 0.1 mm 3 mps 742 mmHg 43%
    22:00 +30°C° 0.1 mm 3 mps 742 mmHg 43%
    23:00 +30°C° 0 mm 3 mps 742 mmHg 44%

    Tomorrow, 19 March, Tuesday

    Time Temperature Precipitation Wind Pressure Humidity
    00:00 +30°C° 0 mm 3 mps 742 mmHg 45%
    01:00 +30°C° 0 mm 3 mps 742 mmHg 46%
    02:00 +30°C° 0 mm 3 mps 742 mmHg 46%
    03:00 +30°C° 0 mm 3 mps 742 mmHg 47%
    04:00 +30°C° 0 mm 2 mps 742 mmHg 47%
    05:00 +30°C° 0 mm 2 mps 742 mmHg 49%
    06:00 +30°C° 0 mm 2 mps 743 mmHg 50%
    07:00 +29°C° 0 mm 2 mps 743 mmHg 51%
    08:00 +31°C° 0 mm 3 mps 744 mmHg 49%
    09:00 +33°C° 0 mm 3 mps 744 mmHg 46%
    10:00 +34°C° 0 mm 3 mps 745 mmHg 44%
    11:00 +35°C° 0 mm 3 mps 744 mmHg 42%
    12:00 +36°C° 0 mm 3 mps 743 mmHg 39%
    13:00 +37°C° 0 mm 2 mps 742 mmHg 37%
    14:00 +37°C° 0 mm 2 mps 741 mmHg 37%
    15:00 +37°C° 0 mm 2 mps 741 mmHg 37%
    16:00 +36°C° 0 mm 2 mps 740 mmHg 37%
    17:00 +35°C° 0.6 mm 2 mps 740 mmHg 41%
    18:00 +32°C° 0.6 mm 2 mps 741 mmHg 44%
    19:00 +31°C° 0.6 mm 3 mps 741 mmHg 48%
    20:00 +31°C° 0.5 mm 3 mps 741 mmHg 48%
    21:00 +30°C° 0.5 mm 3 mps 742 mmHg 48%
    22:00 +30°C° 0.5 mm 3 mps 742 mmHg 48%
    23:00 +30°C° 0.2 mm 3 mps 742 mmHg 48%

    Day after tomorrow, 20 March, Wednesday

    Time Temperature Precipitation Wind Pressure Humidity
    00:00 +30°C° 0.2 mm 3 mps 742 mmHg 48%
    01:00 +30°C° 0.2 mm 3 mps 741 mmHg 48%
    02:00 +30°C° 0 mm 2 mps 741 mmHg 49%
    03:00 +30°C° 0 mm 2 mps 741 mmHg 50%
    04:00 +30°C° 0 mm 2 mps 741 mmHg 50%
    05:00 +30°C° 0 mm 2 mps 742 mmHg 51%
    06:00 +30°C° 0 mm 2 mps 742 mmHg 51%
    07:00 +30°C° 0 mm 2 mps 743 mmHg 52%
    08:00 +31°C° 0 mm 2 mps 743 mmHg 48%
    09:00 +34°C° 0 mm 3 mps 744 mmHg 45%
    10:00 +36°C° 0 mm 3 mps 744 mmHg 41%
    11:00 +37°C° 0 mm 3 mps 743 mmHg 38%
    12:00 +38°C° 0 mm 3 mps 742 mmHg 35%
    13:00 +39°C° 0 mm 2 mps 741 mmHg 32%
    14:00 +39°C° 0 mm 2 mps 740 mmHg 32%
    15:00 +39°C° 0 mm 2 mps 740 mmHg 31%
    16:00 +39°C° 0 mm 2 mps 739 mmHg 30%
    17:00 +38°C° 0 mm 2 mps 739 mmHg 33%
    18:00 +36°C° 0 mm 2 mps 740 mmHg 35%
    19:00 +35°C° 0 mm 2 mps 740 mmHg 37%
    20:00 +34°C° 0 mm 3 mps 741 mmHg 39%
    21:00 +34°C° 0 mm 3 mps 742 mmHg 40%
    22:00 +33°C° 0 mm 3 mps 742 mmHg 41%
    23:00 +33°C° 0 mm 3 mps 742 mmHg 42%

    21 March, Thursday

    Time Temperature Precipitation Wind Pressure Humidity
    00:00 +31°C° 0 mm 3 mps 742 mmHg 43%
    01:00 +31°C° 0 mm 2 mps 741 mmHg 44%
    02:00 +31°C° 0.1 mm 2 mps 741 mmHg 46%
    03:00 +30°C° 0.1 mm 2 mps 741 mmHg 47%
    04:00 +30°C° 0.1 mm 1 mps 741 mmHg 48%
    05:00 +30°C° 0 mm 1 mps 742 mmHg 49%
    06:00 +30°C° 0 mm 1 mps 743 mmHg 50%
    07:00 +30°C° 0 mm 1 mps 743 mmHg 50%
    08:00 +31°C° 0 mm 1 mps 744 mmHg 47%
    09:00 +33°C° 0 mm 1 mps 744 mmHg 44%
    10:00 +35°C° 0 mm 2 mps 744 mmHg 40%
    11:00 +36°C° 0 mm 2 mps 743 mmHg 38%
    12:00 +36°C° 0 mm 1 mps 742 mmHg 36%
    13:00 +37°C° 0 mm 1 mps 741 mmHg 34%
    14:00 +37°C° 0 mm 2 mps 741 mmHg 34%
    15:00 +37°C° 0 mm 2 mps 740 mmHg 33%
    16:00 +37°C° 0 mm 2 mps 739 mmHg 33%
    17:00 +36°C° 0 mm 3 mps 740 mmHg 35%
    18:00 +34°C° 0 mm 3 mps 741 mmHg 36%
    19:00 +33°C° 0 mm 3 mps 741 mmHg 38%
    20:00 +33°C° 0 mm 3 mps 742 mmHg 39%
    21:00 +31°C° 0 mm 3 mps 742 mmHg 40%
    22:00 +31°C° 0 mm 3 mps 742 mmHg 42%
    23:00 +31°C° 0 mm 3 mps 742 mmHg 42%

    22 March, Friday

    Time Temperature Precipitation Wind Pressure Humidity
    00:00 +31°C° 0 mm 3 mps 742 mmHg 42%
    01:00 +30°C° 0 mm 2 mps 742 mmHg 42%
    02:00 +30°C° 0 mm 2 mps 742 mmHg 44%
    03:00 +29°C° 0 mm 2 mps 742 mmHg 46%
    04:00 +29°C° 0 mm 1 mps 742 mmHg 47%
    05:00 +29°C° 0 mm 1 mps 742 mmHg 48%
    06:00 +29°C° 0 mm 1 mps 743 mmHg 50%
    07:00 +30°C° 0 mm 1 mps 744 mmHg 51%
    08:00 +31°C° 0 mm 2 mps 744 mmHg 49%
    09:00 +31°C° 0 mm 2 mps 745 mmHg 47%
    10:00 +32°C° 0 mm 2 mps 745 mmHg 45%
    11:00 +35°C° 0 mm 2 mps 744 mmHg 41%
    12:00 +36°C° 0 mm 2 mps 743 mmHg 38%
    13:00 +37°C° 0 mm 1 mps 742 mmHg 34%
    14:00 +37°C° 0 mm 1 mps 741 mmHg 34%
    15:00 +36°C° 0 mm 1 mps 741 mmHg 34%
    16:00 +36°C° 0 mm 1 mps 740 mmHg 34%
    17:00 +35°C° 0 mm 1 mps 741 mmHg 37%
    18:00 +35°C° 0 mm 2 mps 741 mmHg 40%
    19:00 +32°C° 0 mm 2 mps 742 mmHg 42%
    20:00 +32°C° 0.2 mm 2 mps 742 mmHg 43%
    21:00 +31°C° 0.2 mm 3 mps 743 mmHg 44%
    22:00 +30°C° 0.2 mm 3 mps 743 mmHg 45%
    23:00 +30°C° 0 mm 3 mps 743 mmHg 46%

    23 March, Saturday

    Time Temperature Precipitation Wind Pressure Humidity
    00:00 +30°C° 0 mm 3 mps 742 mmHg 47%
    01:00 +30°C° 0 mm 2 mps 742 mmHg 48%
    02:00 +30°C° 0.1 mm 2 mps 742 mmHg 48%
    03:00 +29°C° 0.1 mm 2 mps 742 mmHg 49%
    04:00 +29°C° 0.1 mm 2 mps 742 mmHg 49%
    05:00 +29°C° 0 mm 1 mps 743 mmHg 50%
    06:00 +29°C° 0 mm 1 mps 744 mmHg 51%
    07:00 +29°C° 0 mm 1 mps 744 mmHg 52%
    08:00 +30°C° 0 mm 2 mps 745 mmHg 51%
    09:00 +31°C° 0 mm 2 mps 745 mmHg 49%
    10:00 +33°C° 0 mm 3 mps 745 mmHg 47%
    11:00 +34°C° 0 mm 3 mps 744 mmHg 43%
    12:00 +35°C° 0 mm 3 mps 744 mmHg 39%
    13:00 +37°C° 0 mm 2 mps 743 mmHg 35%
    14:00 +37°C° 0 mm 2 mps 742 mmHg 35%
    15:00 +37°C° 0 mm 2 mps 742 mmHg 34%
    16:00 +37°C° 0 mm 2 mps 741 mmHg 34%
    17:00 +35°C° 0 mm 2 mps 742 mmHg 37%
    18:00 +34°C° 0 mm 2 mps 742 mmHg 40%
    19:00 +31°C° 0 mm 1 mps 743 mmHg 43%
    20:00 +31°C° 0 mm 2 mps 743 mmHg 43%
    21:00 +30°C° 0 mm 2 mps 743 mmHg 43%
    22:00 +30°C° 0 mm 3 mps 744 mmHg 42%
    23:00 +30°C° 0 mm 3 mps 743 mmHg 42%
    Show more